(451) Patientia
ephemeris date magn radius delta ra dec elong phase
Today19 Oct 202513.03.277 AU4.087 AU15h41m-14°33'31.4°9.1°
Opposition9 Jul 202611.33.217 AU2.206 AU19h17m-29°18'173.0°2.2°
(451) Patientia - 2025-10-19
astro.vanbuitenen.nl


 
-1 year
-1 month
-1 day
Now
+1 day
+1 month
+1 year

The interactive orbit chart above shows the body's path through the solar system and its position at the given date. Green and blue lines are shown perpendicular to the ecliptic plane: Green if the path is above the ecliptic plane, blue if it is below. (Left-click and drag to rotate the view; Right-click and drag to move the view; Use scroll wheel to zoom in our out.)

The orbital elements of Patientia are:

            e (Eccentricity)                : 0.0697885
            a (Semimajor axis)              : 3.0636631
            i (Inclination)                 : 15.20648
            Ω (Longitude of ascending node) : 88.99597
            ω (Argument of perihelion)      : 337.10369
            M (Mean anomaly)                : 147.84745
            Epoch                           : 2025 May 05

            L (Longitude of perihelion)     : 66.82246
            B (Latitude of perihelion)      : -5.85729
            P (Orbital period in years)     : 5.36            
        

The light curve chart below shows the estimated development of the minor planet's magnitude.


The all-sky chart below shows the path of the minor planet over the same period as the light curve. The current position is marked yellow.





The following chart shows the path of the minor planet in the next few days. The field of view is optimized for (~10x50) binoculars and finderscopes.




Ephemerides:
Date       Time       RA (2000)    DEC (2000)    delta   radius  elong  phase   PA    magn
2025-10-19 00:00 UT   15 41 35.1   -14 33 59     4.087    3.277   31.4    9.1    95   13.0 
2025-10-19 16:44 UT   15 42 29.7   -14 38 45     4.092    3.277   30.9    9.0    95   13.0 
2025-10-20 00:00 UT   15 42 53.5   -14 40 49     4.094    3.277   30.7    8.9    95   13.0 
2025-10-21 00:00 UT   15 44 12.2   -14 47 36     4.101    3.277   30.1    8.8    94   13.0 
2025-10-22 00:00 UT   15 45 31.3   -14 54 21     4.108    3.277   29.4    8.6    94   13.0 
2025-10-23 00:00 UT   15 46 50.6   -15 01 03     4.115    3.277   28.7    8.4    94   13.0 
2025-10-24 00:00 UT   15 48 10.3   -15 07 43     4.121    3.277   28.1    8.2    94   13.0 
2025-10-25 00:00 UT   15 49 30.3   -15 14 20     4.128    3.277   27.4    8.0    93   13.0 
2025-10-26 00:00 UT   15 50 50.6   -15 20 55     4.134    3.277   26.8    7.9    93   13.0 
2025-10-27 00:00 UT   15 52 11.1   -15 27 27     4.140    3.277   26.1    7.7    93   13.0 
2025-10-28 00:00 UT   15 53 32.0   -15 33 56     4.146    3.277   25.5    7.5    92   13.0 
2025-10-29 00:00 UT   15 54 53.1   -15 40 23     4.152    3.277   24.8    7.3    92   13.0 
2025-10-30 00:00 UT   15 56 14.5   -15 46 46     4.158    3.277   24.2    7.1    92   13.0 
2025-10-31 00:00 UT   15 57 36.2   -15 53 07     4.164    3.277   23.5    6.9    91   13.0 
2025-11-01 00:00 UT   15 58 58.1   -15 59 26     4.169    3.277   22.9    6.8    91   13.0 
2025-11-02 00:00 UT   16 00 20.3   -16 05 41     4.174    3.277   22.2    6.6    91   13.0 
2025-11-03 00:00 UT   16 01 42.8   -16 11 53     4.180    3.277   21.6    6.4    90   13.0 
2025-11-04 00:00 UT   16 03 05.5   -16 18 03     4.185    3.277   20.9    6.2    90   13.0 
2025-11-05 00:00 UT   16 04 28.4   -16 24 10     4.189    3.277   20.3    6.0    89   13.0 
2025-11-06 00:00 UT   16 05 51.6   -16 30 13     4.194    3.277   19.6    5.8    89   12.9 
2025-11-07 00:00 UT   16 07 15.0   -16 36 14     4.199    3.277   19.0    5.6    88   12.9 
2025-11-08 00:00 UT   16 08 38.7   -16 42 12     4.203    3.277   18.3    5.5    88   12.9 
2025-11-09 00:00 UT   16 10 02.6   -16 48 07     4.207    3.277   17.7    5.3    87   12.9 
2025-11-10 00:00 UT   16 11 26.7   -16 53 59     4.211    3.277   17.1    5.1    87   12.9 
2025-11-11 00:00 UT   16 12 51.0   -16 59 48     4.215    3.277   16.4    4.9    86   12.9 
2025-11-12 00:00 UT   16 14 15.6   -17 05 33     4.219    3.277   15.8    4.7    86   12.9 


    Terminology:
            
    delta:  distance between minor planet and earth in AU
    radius: distance between minor planet and sun in AU
    magn:   magnitude (brightness) estimate    
    ra:     right ascension in hours (24h = 360deg)
    dec:    declination in degrees
    elong:  elongation in degrees (angle sun-earth-minor planet)    
    phase:  phase angle in degrees (angle sun-minor planet-earth)        
    AU:     Astronomical Unit (mean distance between earth and sun: 149597870.7 km
    

Orbital elements provided by the MPC (Minor Planet Center).
Calculations by a modified version of AAPlus, a C# implementation of the AA+ project by PJ Naughter from the algorithms presented in the book "Astronomical Algorithms" by Jean Meeus.
NGC2000 dso catalog and star labels from VizieR as provided by the Strasbourg astronomical Data Center.
Tycho2 catalog from the ESO archive.